Retour au catalogue

NOAA 16 DEB

ActifSSO
NORAD 41058·DEBRIS·🇺🇸 United States

Lancé Sep 21, 2000 depuis Vandenberg Space Force Base

Loading…

Prochains Passages (prochaines 24 heures)

TLE

FraisSource: Space-Track

Époque: Sep 14, 2026, 09:24 UTC

1 41058U 00055R   26257.39191403  .00000612  00000-0  34923-3 0  9993
2 41058  98.5988 251.1948 0021731 250.9200 108.9620 14.13116696555536

Suivez NOAA 16 DEB en temps réel avec AllMySat

Download on the App Store